Weather History for MYNN - November, 2011

Change the Weather History Date:

Saturday, November 26, 2011

  Actual Average Record
Temperature  
Mean Temperature 76 °F -  
Max Temperature 81 °F 79 °F 86 °F (2014)
Min Temperature 72 °F 65 °F 62 °F (2005)
Cooling Degree Days 12    
Growing Degree Days 26 (Base 50)    
Moisture  
Dew Point 61 °F    
Average Humidity 56    
Maximum Humidity 69    
Minimum Humidity 33    
Precipitation  
Precipitation 0.00 in 0.07 in - ()
Sea Level Pressure  
Sea Level Pressure 30.13 in    
Wind  
Wind Speed 12 mph ()    
Max Wind Speed 21 mph    
Max Gust Speed 26 mph    
Visibility 6.8 miles    
Events      
Averages and records for this station are not official NWS values.
T = Trace of Precipitation, MM = Missing Value Source: Averaged Metar Reports

Daily Weather History Graph

Daily Weather History Graph

Search for Another Location

Airport or City:

Trip Planner

Search our weather history database for the weather conditions in past years. The results will help you decide how hot, cold, wet, or windy it might be!

Date:

Astronomy

Nov. 26, 2011 Rise Set
Actual Time 6:34 AM EST 5:19 PM EST
Civil Twilight 6:09 AM EST 5:44 PM EST
Nautical Twilight 5:41 AM EST 6:12 PM EST
Astronomical Twilight 5:14 AM EST 6:40 PM EST
Moon 7:57 AM EST (11/26) 6:53 PM EST (11/26)
Length of Visible Light 11h 34m
Length of Day
10h 45m
Waxing Crescent, 3% of the Moon is Illuminated
Nov 26
Waxing Crescent
Dec 2
First Quarter
Dec 10
Full
Dec 17
Last Quarter
Dec 24
New

Hourly Weather History & Observations

Time (EST) Temp. Heat Index Dew Point Humidity Pressure Visibility Wind Dir Wind Speed Gust Speed Precip Events Conditions
12:00 AM 77.0 °F - 55.4 °F 47% 30.12 in 6.2 mi ENE 12.7 mph - N/A   Scattered Clouds
1:00 AM 74 °F - 62 °F 59% 30.13 in 8 mi ENE 13.8 mph - -   Partly Cloudy
1:00 AM 73.4 °F - 62.6 °F 69% 30.13 in 6.2 mi ENE 13.8 mph - N/A   Partly Cloudy
2:00 AM 77.0 °F - 55.4 °F 47% 30.11 in 6.2 mi ENE 12.7 mph - N/A   Partly Cloudy
3:00 AM 77.0 °F - 55.4 °F 47% 30.11 in 6.2 mi ENE 12.7 mph - N/A   Partly Cloudy
4:00 AM 74 °F - 62 °F 57% 30.12 in 8 mi ENE 11.5 mph - -   Partly Cloudy
4:00 AM 73.4 °F - 62.6 °F 69% 30.11 in 6.2 mi ENE 11.5 mph - N/A   Scattered Clouds
5:00 AM 77.0 °F - 55.4 °F 47% 30.11 in 6.2 mi ENE 11.5 mph - N/A   Scattered Clouds
6:00 AM 77.0 °F - 53.6 °F 44% 30.11 in 6.2 mi East 11.5 mph 23.0 mph N/A   Partly Cloudy
7:00 AM 74 °F - 62 °F 58% 30.14 in 9 mi ENE 13.8 mph - -   Partly Cloudy
7:00 AM 73.4 °F - 62.6 °F 69% 30.14 in 6.2 mi ENE 13.8 mph - N/A   Partly Cloudy
8:00 AM 78.8 °F - 57.2 °F 47% 30.15 in 6.2 mi ENE 15.0 mph - N/A   Partly Cloudy
9:00 AM 82.4 °F 82.0 °F 57.2 °F 42% 30.17 in 6.2 mi ENE 13.8 mph - N/A   Scattered Clouds
10:00 AM 78 °F - 65 °F 56% 30.18 in 9 mi ENE 11.5 mph - -   Partly Cloudy
10:00 AM 78.8 °F - 64.4 °F 61% 30.18 in 6.2 mi ENE 11.5 mph 26.5 mph N/A   Scattered Clouds
11:00 AM 84.2 °F 83.5 °F 57.2 °F 40% 30.17 in 6.2 mi ENE 13.8 mph - N/A   Scattered Clouds
12:00 PM 84.2 °F 83.0 °F 55.4 °F 37% 30.15 in 6.2 mi ENE 19.6 mph - N/A   Partly Cloudy
1:00 PM 80 °F - 66 °F 53% 30.13 in 9 mi ENE 20.7 mph - -   Scattered Clouds
1:00 PM 80.6 °F 82.7 °F 66.2 °F 61% 30.12 in 6.2 mi ENE 20.7 mph - N/A   Partly Cloudy
2:00 PM 84.2 °F - 51.8 °F 33% 30.10 in 6.2 mi East 18.4 mph - N/A   Partly Cloudy
3:00 PM 78.8 °F - 66.2 °F 65% 30.08 in 6.2 mi East 17.3 mph - N/A   Scattered Clouds
4:00 PM 77 °F - 66 °F 61% 30.09 in 9 mi ENE 17.3 mph - -   Partly Cloudy
4:00 PM 77.0 °F - 66.2 °F 69% 30.09 in 6.2 mi ENE 17.3 mph - N/A   Scattered Clouds
5:00 PM 77.0 °F - 66.2 °F 69% 30.09 in 6.2 mi East 13.8 mph - N/A   Scattered Clouds
6:00 PM 77.0 °F - 62.6 °F 61% 30.10 in 6.2 mi East 11.5 mph - N/A   Scattered Clouds
7:00 PM 75 °F - 62 °F 56% 30.12 in 9 mi East 13.8 mph - -   Partly Cloudy
7:00 PM 75.2 °F - 62.6 °F 65% 30.11 in 6.2 mi East 13.8 mph - N/A   Scattered Clouds
8:00 PM 75.2 °F - 62.6 °F 65% 30.12 in 6.2 mi East 12.7 mph - N/A   Scattered Clouds
9:00 PM 75.2 °F - 64.4 °F 69% 30.13 in 6.2 mi East 9.2 mph - N/A   Scattered Clouds
10:00 PM 75 °F - 63 °F 59% 30.14 in 9 mi East 9.2 mph - -   Partly Cloudy
10:00 PM 75.2 °F - 62.6 °F 65% 30.14 in 6.2 mi East 9.2 mph - N/A   Scattered Clouds
11:00 PM 75.2 °F - 60.8 °F 61% 30.13 in 6.2 mi East 8.1 mph - N/A   Scattered Clouds